Regional Weather Roundup
Issued by NWS Cleveland, OH

Home | Current Version | Previous Version | Graphics & Text | Print | Product List | Glossary On
Versions: 1 2 3 4 5 6 7 8 9 10 11 12 13 14 15 16 17 18 19 20 21 22 23 24 25 26 27 28 29 30 31 32 33 34 35 36 37 38 39 40 41 42 43 44 45 46 47 48 49 50
000
ASUS41 KCLE 210600
RWRCLE
OHIO REGIONAL WEATHER ROUNDUP
NATIONAL WEATHER SERVICE WILMINGTON, OH
200 AM EDT THU AUG 21 2014

NOTE: "FAIR" INDICATES FEW OR NO CLOUDS BELOW 12,000 FEET WITH NO
SIGNIFICANT WEATHER AND/OR OBSTRUCTIONS TO VISIBILITY.

OHZ001>008-015>018-024>027-034-035-043-044-210700-
   NORTHWEST OHIO

CITY           SKY/WX    TMP DP  RH WIND       PRES   REMARKS
DEFIANCE       FAIR      73  65  75 SW5       29.98F
FINDLAY        FAIR      72  66  81 SW7       29.99R
TOLEDO EXPRESS FAIR      68  65  90 CALM      29.96F
TOLEDO METCALF FAIR      68  63  84 S5        29.97F
LIMA           FAIR      71  65  81 SW7       30.02R
$$

OHZ009>014-019>023-028>033-038-089-210700-
   NORTHEAST OHIO

CITY           SKY/WX    TMP DP  RH WIND       PRES   REMARKS
CLE-HOPKINS    FAIR      69  65  86 SW6       29.99F
CLE-LAKEFRONT  FAIR      73  66  78 SW8       29.96S
CUY CO. ARPT   NOT AVBL
LORAIN-ELYRIA  FAIR      71  65  81 W6        29.98F
ASHTABULA      MOCLDY    66  64  93 SW3       29.98S
AKRON-CANTON   FAIR      70  65  84 W5        30.00F
WOOSTER        NOT AVBL
MANSFIELD      FAIR      68  65  90 S3        30.01F
YOUNGSTOWN     FAIR      68  66  93 SW6       29.99S
$$

OHZ042-051>053-060>062-070>072-077>081-210700-
  SOUTHWEST OHIO

CITY           SKY/WX    TMP DP  RH WIND       PRES   REMARKS
CINC-COVINGTON FAIR      70  67  90 SW3       30.04S
CINC-LUNKEN    FAIR      68  67  96 CALM      30.04S
HAMILTON       FAIR      69  68  96 CALM      30.04S
DAYTON         NOT AVBL
WRIGHT-PAT AFB NOT AVBL
DAYTON GENERAL FAIR      72  68  87 SW8       30.03S
WILMINGTON     FAIR      67  65  93 S3        30.04S
$$

OHZ036-037-039>041-045>050-054>059-063>069-073>076-082>088-210700-
  CENTRAL AND SOUTHEAST OHIO

CITY           SKY/WX    TMP DP  RH WIND       PRES   REMARKS
COLUMBUS       FAIR      75  66  73 S5        30.01F
OSU AIRPORT    FAIR      71  66  84 W7        30.01F
BOLTON FIELD   NOT AVBL
RICKENBACK AFB NOT AVBL
NEWARK         FAIR      67  65  93 CALM      30.00F
MARION         FAIR      71  65  81 W7        30.01S
LANCASTER      FAIR      70  66  87 SW3       30.02F
ZANESVILLE     FOG       66  64  93 CALM      30.01F VSB 1
NEW PHILLY     FOG       65  65 100 SE3       30.01F VSB 1/4
$$



USA.gov is the U.S. government's official web portal to all federal, state and local government web resources and services.